DW8078 Weather Reports


Display with metric or nautical units.
time (UTC)temp
F
wind
direction
speed
MPH
gust
MPH
rain 1hr
in
rain 24hr
in
rain mn
in
humidity
%
barometer
mb
20170624065750 59 292 5.0 10.0 0.00 0.30 0.07 84 1009.7
20170624064249 59 290 7.0 14.0 0.00 0.30 0.07 83 1009.7
20170624062756 59 338 8.0 16.0 0.00 0.30 0.07 82 1009.6
20170624061247 59 304 8.0 15.0 0.00 0.30 0.07 83 1009.6
20170624055747 59 308 7.0 15.0 0.00 0.31 0.07 85 1009.3
20170624054243 59 318 8.0 13.0 0.00 0.31 0.07 86 1009.5
20170624052744 59 319 7.0 13.0 0.00 0.31 0.07 87 1009.4
20170624051242 59 314 7.0 13.0 0.00 0.31 0.07 88 1009.3
20170624045739 59 310 8.0 15.0 0.00 0.33 0.07 89 1009.4
20170624044239 59 288 9.0 14.0 0.00 0.33 0.07 90 1009.3
20170624042736 59 299 2.0 11.0 0.00 0.33 0.07 91 1009.1
20170624041234 59 312 8.0 14.0 0.00 0.33 0.07 91 1009.1
20170624035735 59 304 4.0 13.0 0.01 0.34 0.07 91 1009.1
20170624034242 59 307 2.0 14.0 0.01 0.34 0.07 91 1009.0
20170624032733 59 294 5.0 9.0 0.01 0.34 0.07 91 1009.0
20170624031225 59 311 4.0 10.0 0.01 0.34 0.07 91 1008.9
20170624025727 59 295 3.0 8.0 0.01 0.33 0.06 91 1009.0
20170624024225 59 314 3.0 13.0 0.01 0.33 0.06 91 1009.0
20170624022723 59 292 7.0 17.0 0.02 0.33 0.06 91 1009.0
20170624021221 59 296 7.0 15.0 0.02 0.33 0.06 91 1009.0
20170624015725 59 299 6.0 14.0 0.02 0.32 0.06 91 1008.9
20170624014222 59 314 7.0 12.0 0.02 0.32 0.06 91 1008.9
20170624012715 59 319 7.0 14.0 0.02 0.31 0.05 91 1008.9
20170624011213 59 314 11.0 16.0 0.02 0.31 0.05 91 1009.0
20170624005715 59 306 8.0 13.0 0.02 0.31 0.04 91 1008.8
20170624004211 60 304 12.0 17.0 0.02 0.31 0.04 91 1008.7
20170624002713 60 333 12.0 17.0 0.02 0.30 0.03 91 1008.6
20170624001209 60 298 9.0 20.0 0.02 0.30 0.03 91 1008.6
20170623235709 60 298 13.0 19.0 0.02 0.28 0.02 90 1008.7
20170623234209 60 321 11.0 20.0 0.01 0.28 0.02 90 1008.7
20170623232703 61 308 10.0 18.0 0.02 0.28 0.02 91 1008.6
20170623231202 61 321 9.0 19.0 0.02 0.28 0.02 91 1008.8
20170623225658 61 327 8.0 13.0 0.01 0.28 0.01 91 1008.7
20170623224155 62 304 6.0 14.0 0.01 0.28 0.01 91 1008.7
20170623222657 62 312 5.0 13.0 0.00 0.27 0.00 91 1008.5
20170623221202 62 296 4.0 14.0 0.00 0.27 0.00 90 1008.7
20170623215648 62 335 10.0 15.0 0.00 0.27 0.27 90 1008.7
20170623214150 63 279 5.0 9.0 0.00 0.27 0.27 89 1008.8
20170623212647 63 306 3.0 10.0 0.00 0.27 0.27 88 1008.8
20170623211147 63 290 3.0 8.0 0.00 0.27 0.27 88 1008.8
20170623205651 63 284 4.0 11.0 0.00 0.27 0.27 88 1008.7
20170623204147 63 310 7.0 10.0 0.00 0.27 0.27 88 1008.8
20170623202648 64 307 5.0 9.0 0.00 0.27 0.27 88 1008.9
20170623201145 64 310 0.0 4.0 0.00 0.27 0.27 88 1008.9
20170623195651 64 331 0.0 0.0 0.00 0.27 0.27 89 1008.8
20170623194145 64 303 1.0 6.0 0.00 0.27 0.27 88 1008.9
20170623192650 65 312 0.0 0.0 0.00 0.27 0.27 88 1008.7
20170623191144 65 331 0.0 0.0 0.00 0.27 0.27 88 1008.6
20170623185651 65 331 1.0 10.0 0.00 0.27 0.27 87 1008.5
20170623184145 66 314 4.0 9.0 0.00 0.27 0.27 87 1008.2
20170623182637 66 311 5.0 10.0 0.00 0.27 0.27 86 1007.9
20170623181138 66 310 7.0 10.0 0.00 0.27 0.27 85 1007.8
20170623175636 66 298 5.0 9.0 0.00 0.27 0.27 86 1007.8
20170623174136 67 286 2.0 7.0 0.00 0.27 0.27 84 1007.7
20170623172640 68 288 6.0 10.0 0.00 0.27 0.27 80 1007.5
20170623171136 69 333 0.0 0.0 0.00 0.27 0.27 78 1007.2
20170623165630 69 340 0.0 0.0 0.00 0.27 0.27 76 1007.2
20170623164130 69 340 0.0 0.0 0.01 0.27 0.27 74 1007.1
20170623162632 69 340 0.0 0.0 0.01 0.27 0.27 75 1007.1
20170623161130 69 340 0.0 5.0 0.01 0.27 0.27 74 1007.1
20170623155631 70 345 2.0 4.0 0.01 0.27 0.27 74 1007.2
20170623154130 70 360 1.0 5.0 0.01 0.26 0.26 73 1007.1
20170623152630 71 355 2.0 6.0 0.01 0.26 0.26 72 1007.1
20170623151132 69 13 0.0 3.0 0.02 0.26 0.26 75 1006.9
20170623145635 70 13 0.0 5.0 0.02 0.26 0.26 75 1006.9
20170623144129 71 345 0.0 6.0 0.02 0.25 0.25 72 1006.7
20170623142626 71 332 0.0 6.0 0.02 0.25 0.25 73 1006.8
20170623141126 70 32 0.0 7.0 0.02 0.24 0.24 74 1006.8
20170623135629 70 26 0.0 2.0 0.02 0.24 0.24 71 1006.6
20170623134127 70 346 0.0 4.0 0.02 0.24 0.24 74 1006.6
20170623132627 69 349 0.0 6.0 0.02 0.23 0.23 76 1006.6
20170623131121 70 350 0.0 5.0 0.02 0.22 0.22 77 1006.7
20170623125621 68 34 0.0 6.0 0.02 0.22 0.22 77 1006.6
20170623124120 68 49 0.0 4.0 0.02 0.21 0.21 80 1006.6
20170623122615 68 90 0.0 4.0 0.02 0.21 0.21 80 1006.3
20170623121112 65 22 1.0 5.0 0.02 0.20 0.20 84 1006.3
20170623115609 65 330 1.0 7.0 0.03 0.20 0.20 86 1006.2
20170623114601 65 309 3.0 6.0 0.02 0.20 0.20 86 1006.2
20170623113658 65 320 1.0 7.0 0.03 0.19 0.19 85 1006.2
20170623113029 65 327 2.0 6.0 0.04 0.19 0.19 86 1006.0
20170623112202 64 319 2.0 8.0 0.03 0.17 0.17 89 1005.8
20170623111446 63 323 5.0 8.0 0.04 0.17 0.17 89 1005.8
20170623110641 62 330 4.0 8.0 0.03 0.16 0.16 90 1005.8
20170623105826 62 294 5.0 9.0 0.04 0.15 0.15 89 1005.6
20170623105030 62 310 0.0 1.0 0.05 0.14 0.14 90 1005.5
20170623104252 61 311 0.0 1.0 0.06 0.13 0.13 90 1005.6
20170623103509 61 313 0.0 1.0 0.05 0.12 0.12 90 1005.6
20170623102718 61 167 0.0 1.0 0.06 0.11 0.11 91 1005.2
20170623102003 59 163 0.0 0.0 0.05 0.09 0.09 92 1005.0
20170623101340 59 163 0.0 0.0 0.03 0.08 0.08 92 1004.9
20170623100743 59 163 0.0 1.0 0.02 0.07 0.07 91 1004.9
20170623100001 59 177 0.0 1.0 0.01 0.06 0.06 92 1004.8
20170623095220 59 182 0.0 0.0 0.00 0.05 0.05 92 1004.7
20170623094500 59 182 0.0 0.0 0.01 0.05 0.05 92 1004.8
20170623093748 59 182 0.0 0.0 0.01 0.05 0.05 91 1004.7
20170623092939 59 182 0.0 0.0 0.01 0.05 0.05 91 1004.6
20170623092151 59 182 0.0 0.0 0.01 0.05 0.05 91 1004.3
20170623091414 59 182 0.0 0.0 0.01 0.04 0.04 91 1004.2
20170623090636 58 182 0.0 1.0 0.01 0.04 0.04 91 1004.0
20170623090010 58 182 0.0 0.0 0.01 0.04 0.04 91 1004.1
20170623085305 58 182 0.0 0.0 0.01 0.04 0.04 91 1004.1
20170623084516 58 182 0.0 0.0 0.00 0.03 0.03 90 1004.0
20170623083632 58 182 0.0 0.0 0.01 0.03 0.03 90 1004.0
20170623082834 58 182 0.0 0.0 0.02 0.03 0.03 89 1004.1
20170623081902 58 180 0.0 0.0 0.02 0.03 0.03 89 1004.0
20170623080920 58 181 0.0 0.0 0.03 0.03 0.03 88 1003.8
20170623080101 58 180 0.0 0.0 0.02 0.02 0.02 87 1003.6
20170623075237 58 180 0.0 0.0 0.02 0.02 0.02 86 1003.3
20170623074443 59 181 0.0 1.0 0.01 0.01 0.01 86 1003.0
20170623073608 59 183 0.0 0.0 0.00 0.00 0.00 84 1003.0
20170623072747 59 183 0.0 0.0 0.00 0.00 0.00 84 1003.6
20170623071910 59 183 0.0 0.0 0.00 0.00 0.00 84 1004.1
20170623071024 59 183 0.0 1.0 0.00 0.00 0.00 84 1004.3